Terminal Aerodrome Forecast
Issued by NWS

Home | Current Version | Previous Version | Text Only | Print | Product List | Glossary On
Versions: 1 2 3 4 5 6 7 8 9 10 11 12 13 14 15 16 17 18 19
000
FTUS43 KDLH 211904 AAA
TAFBRD
TAF AMD
KBRD 211904Z 2119/2218 17008KT P6SM SCT050
     FM220300 16005KT P6SM VCSH BKN050
     FM220600 VRB03KT 4SM BR BKN030
     FM221000 VRB03KT 5SM BR SKC
     FM221300 31004KT P6SM BKN200=

USA.gov is the U.S. government's official web portal to all federal, state and local government web resources and services.